Sandspit, British Columbia

1:17 PM PDT on August 28, 2016 (GMT -0700)
Sandspit

Weather History for CYZP - June, 2013

Change the Weather History Date:

Wednesday, June 26, 2013

  Actual Average Record
Temperature  
Mean Temperature 56 °F -  
Max Temperature 60 °F 60 °F 66 °F (2000)
Min Temperature 53 °F 51 °F 45 °F (2014)
Degree Days  
Heating Degree Days 8    
Growing Degree Days 6 (Base 50)    
Moisture  
Dew Point 53 °F    
Average Humidity 88    
Maximum Humidity 94    
Minimum Humidity 80    
Precipitation  
Precipitation 0.00 in 0.12 in - ()
Sea Level Pressure  
Sea Level Pressure 29.77 in    
Wind  
Wind Speed 18 mph ()    
Max Wind Speed 26 mph    
Max Gust Speed 33 mph    
Visibility 9.0 miles    
Events Rain    
Averages and records for this station are not official NWS values.
T = Trace of Precipitation, MM = Missing Value Source: Averaged Metar Reports

Daily Weather History Graph

Daily Weather History Graph

Search for Another Location

Airport or City:

Trip Planner

Search our weather history database for the weather conditions in past years. The results will help you decide how hot, cold, wet, or windy it might be!

Date:

Astronomy

Jun. 26, 2013 Rise Set
Actual Time 5:21 AM PDT 10:18 PM PDT
Civil Twilight 4:29 AM PDT 11:10 PM PDT
Nautical Twilight 2:57 AM PDT 12:41 AM PDT
Astronomical Twilight Sun does not set Sun does not set
Moon No Moon Rise 9:58 AM PDT (6/26)
Length of Visible Light 18h 41m
Length of Day
16h 57m
Waning Gibbous, 84% of the Moon is Illuminated
Jun 26
Waning Gibbous
Jun 29
Last Quarter
Jul 8
New
Jul 15
First Quarter
Jul 22
Full

Hourly Weather History & Observations

Time (PDT) Temp. Dew Point Humidity Pressure Visibility Wind Dir Wind Speed Gust Speed Precip Events Conditions
12:00 AM 53.6 °F 50.0 °F 88% 29.66 in 9.0 mi SSE 18.4 mph - N/A   Clear
12:25 AM 55.4 °F 50.0 °F 82% 29.66 in 9.0 mi SE 18.4 mph - N/A   Mostly Cloudy
12:53 AM 53.6 °F 51.8 °F 94% 29.67 in 9.0 mi SE 17.3 mph - N/A Rain Light Rain
1:00 AM 53.6 °F 51.8 °F 94% 29.67 in 9.0 mi SSE 15.0 mph 20.7 mph N/A Rain Light Rain
1:09 AM 53.6 °F 51.8 °F 94% 29.68 in 9.0 mi SSE 15.0 mph - N/A   Overcast
1:49 AM 55.4 °F 53.6 °F 94% 29.68 in 9.0 mi ESE 20.7 mph 27.6 mph N/A   Mostly Cloudy
2:00 AM 56 °F 53 °F 86% 29.67 in - SE 16.1 mph - -  
2:00 AM 55.4 °F 53.6 °F 94% 29.68 in 9.0 mi SE 21.9 mph 27.6 mph N/A   Mostly Cloudy
2:21 AM 55.4 °F 53.6 °F 94% 29.68 in 9.0 mi ESE 18.4 mph 24.2 mph N/A   Mostly Cloudy
3:00 AM 55.4 °F 51.8 °F 88% 29.67 in 9.0 mi ESE 19.6 mph - N/A   Mostly Cloudy
3:33 AM 55.4 °F 51.8 °F 88% 29.67 in 9.0 mi ESE 16.1 mph 23.0 mph N/A   Overcast
3:40 AM 55.4 °F 51.8 °F 88% 29.68 in 9.0 mi ESE 18.4 mph - N/A   Mostly Cloudy
4:00 AM 55.4 °F 51.8 °F 88% 29.68 in 9.0 mi ESE 20.7 mph - N/A   Mostly Cloudy
5:00 AM 56 °F 51 °F 80% 29.67 in - East 10.4 mph - -  
5:00 AM 55.4 °F 51.8 °F 88% 29.68 in 9.0 mi East 13.8 mph - N/A   Overcast
5:01 AM 55.4 °F 51.8 °F 88% 29.68 in 9.0 mi East 13.8 mph - N/A   Overcast
6:00 AM 55.4 °F 51.8 °F 88% 29.68 in 9.0 mi East 13.8 mph - N/A   Overcast
7:00 AM 55.4 °F 51.8 °F 88% 29.68 in 9.0 mi East 18.4 mph - N/A   Overcast
7:05 AM 55.4 °F 51.8 °F 88% 29.68 in 9.0 mi East 18.4 mph - N/A Rain Light Rain
8:00 AM 56 °F 53 °F 84% 29.69 in - ESE 15.0 mph - -  
8:00 AM 55.4 °F 51.8 °F 88% 29.70 in 9.0 mi ESE 18.4 mph - N/A Rain Light Rain
8:18 AM 55.4 °F 53.6 °F 94% 29.70 in 9.0 mi ESE 16.1 mph 21.9 mph N/A   Overcast
8:22 AM 55.4 °F 53.6 °F 94% 29.70 in 9.0 mi ESE 17.3 mph - N/A Rain Light Rain
9:00 AM 55.4 °F 53.6 °F 94% 29.70 in 9.0 mi SE 17.3 mph 23.0 mph N/A Rain Light Rain
9:32 AM 55.4 °F 53.6 °F 94% 29.72 in 9.0 mi SE 18.4 mph - N/A Rain Light Rain
9:36 AM 55.4 °F 51.8 °F 88% 29.72 in 9.0 mi SE 21.9 mph - N/A Rain Light Rain
9:47 AM 55.4 °F 51.8 °F 88% 29.72 in 9.0 mi SE 23.0 mph - N/A Rain Light Rain
10:00 AM 55.4 °F 53.6 °F 94% 29.73 in 9.0 mi SE 17.3 mph 26.5 mph N/A Rain Light Rain
10:14 AM 55.4 °F 53.6 °F 94% 29.73 in 9.0 mi SE 19.6 mph 25.3 mph N/A   Overcast
10:17 AM 55.4 °F 53.6 °F 94% 29.73 in 9.0 mi SE 18.4 mph - N/A Rain Light Rain
10:41 AM 55.4 °F 53.6 °F 94% 29.74 in 9.0 mi SE 19.6 mph 26.5 mph N/A   Overcast
11:00 AM 56 °F 53 °F 87% 29.74 in - SE 17.3 mph - -  
11:00 AM 55.4 °F 53.6 °F 94% 29.75 in 9.0 mi SE 21.9 mph 27.6 mph N/A   Overcast
11:17 AM 57.2 °F 53.6 °F 88% 29.75 in 9.0 mi SE 23.0 mph 28.8 mph N/A   Scattered Clouds
12:00 PM 59.0 °F 53.6 °F 82% 29.77 in 9.0 mi SE 25.3 mph 33.4 mph N/A   Scattered Clouds
12:52 PM 59.0 °F 53.6 °F 82% 29.79 in 9.0 mi SE 25.3 mph 31.1 mph N/A   Mostly Cloudy
1:00 PM 59.0 °F 53.6 °F 82% 29.79 in 9.0 mi SE 25.3 mph 32.2 mph N/A   Mostly Cloudy
1:02 PM 59.0 °F 55.4 °F 88% 29.79 in 9.0 mi SE 23.0 mph 32.2 mph N/A   Scattered Clouds
1:51 PM 59.0 °F 53.6 °F 82% 29.81 in 9.0 mi ESE 25.3 mph 32.2 mph N/A   Overcast
2:00 PM 57 °F 53 °F 83% 29.80 in - ESE 20.7 mph - -  
2:00 PM 59.0 °F 53.6 °F 82% 29.81 in 9.0 mi ESE 26.5 mph 33.4 mph N/A   Mostly Cloudy
2:23 PM 59.0 °F 53.6 °F 82% 29.81 in 9.0 mi ESE 25.3 mph 31.1 mph N/A   Mostly Cloudy
3:00 PM 59.0 °F 53.6 °F 82% 29.82 in 9.0 mi SE 24.2 mph 32.2 mph N/A   Mostly Cloudy
3:52 PM 59.0 °F 53.6 °F 82% 29.83 in 9.0 mi SE 25.3 mph - N/A   Mostly Cloudy
3:54 PM 59.0 °F 53.6 °F 82% 29.84 in 9.0 mi SE 20.7 mph 29.9 mph N/A   Mostly Cloudy
3:55 PM 59.0 °F 53.6 °F 82% 29.84 in 9.0 mi SE 21.9 mph 29.9 mph N/A   Mostly Cloudy
4:00 PM 59.0 °F 53.6 °F 82% 29.84 in 9.0 mi SE 21.9 mph 28.8 mph N/A   Mostly Cloudy
5:00 PM 57 °F 53 °F 81% 29.84 in - SE 18.4 mph - -  
5:00 PM 57.2 °F 53.6 °F 88% 29.85 in 9.0 mi SE 20.7 mph 27.6 mph N/A   Scattered Clouds
5:43 PM 57.2 °F 53.6 °F 88% 29.85 in 9.0 mi SE 20.7 mph 26.5 mph N/A   Mostly Cloudy
6:00 PM 59.0 °F 53.6 °F 82% 29.86 in 9.0 mi SE 19.6 mph 26.5 mph N/A   Mostly Cloudy
6:09 PM 59.0 °F 53.6 °F 82% 29.86 in 9.0 mi SE 23.0 mph - N/A   Scattered Clouds
7:00 PM 57.2 °F 51.8 °F 82% 29.86 in 9.0 mi SE 24.2 mph 29.9 mph N/A   Scattered Clouds
8:00 PM 56 °F 52 °F 82% 29.86 in - ESE 19.6 mph - -  
8:00 PM 57.2 °F 53.6 °F 88% 29.87 in 9.0 mi ESE 23.0 mph 28.8 mph N/A   Mostly Cloudy
9:00 PM 55.4 °F 53.6 °F 94% 29.89 in 9.0 mi SE 21.9 mph - N/A   Mostly Cloudy
9:41 PM 55.4 °F 51.8 °F 88% 29.91 in 9.0 mi SE 19.6 mph 26.5 mph N/A   Overcast
9:58 PM 55.4 °F 51.8 °F 88% 29.91 in 9.0 mi SE 16.1 mph 24.2 mph N/A   Overcast
10:00 PM 55.4 °F 51.8 °F 88% 29.91 in 9.0 mi SE 18.4 mph 24.2 mph N/A   Overcast
10:22 PM 55.4 °F 53.6 °F 94% 29.92 in 9.0 mi SE 18.4 mph 24.2 mph N/A   Overcast
10:30 PM 55.4 °F 53.6 °F 94% 29.92 in 9.0 mi ESE 20.7 mph 26.5 mph N/A   Overcast
10:32 PM 55.4 °F 53.6 °F 94% 29.92 in 9.0 mi ESE 21.9 mph - N/A   Overcast
10:46 PM 55.4 °F 53.6 °F 94% 29.93 in 9.0 mi ESE 18.4 mph 25.3 mph N/A   Overcast
11:00 PM 55 °F 53 °F 90% 29.92 in - ESE 16.1 mph - -  
11:00 PM 55.4 °F 53.6 °F 94% 29.93 in 9.0 mi ESE 20.7 mph - N/A   Overcast